Powrót do katalogu

ERS 15

AktywnyNaukaPO
NORAD 2412·PAYLOAD·🇺🇸 United States

Wystrzelony Aug 19, 1966 z Vandenberg Space Force Base

Loading…

Następne Przeloty (najbliższe 24 godziny)

TLE

ŚwieżeSource: Space-Track

Epoka: Sep 14, 2026, 01:27 UTC

1 02412U 66077C   26257.06076963  .00000002  00000-0  00000-0 0  9996
2 02412  90.3250 278.2758 0006123 340.8365  19.2255  8.59079858398092

Śledź ERS 15 w czasie rzeczywistym z AllMySat

Download on the App Store